Regional Weather Roundup
Issued by NWS Little Rock, AR

Home | Current Version | Previous Version | Graphics & Text | Print | Product List | Glossary On
Versions: 1 2 3 4 5 6 7 8 9 10 11 12 13 14 15 16 17 18 19 20 21 22 23 24 25 26 27 28 29 30 31 32
000
ASUS44 KLZK 160205
RWRLZK

WEATHER ROUNDUP FOR ARKANSAS
NATIONAL WEATHER SERVICE LITTLE ROCK AR
900 PM CDT TUE AUG 15 2017

NOTE: "FAIR" INDICATES FEW OR NO CLOUDS BELOW 12,000 FEET WITH NO
SIGNIFICANT WEATHER AND/OR OBSTRUCTIONS TO VISIBILITY.

ARZ001-003-010-029-160300-
NORTHWEST ARKANSAS

CITY           SKY/WX    TMP DP  RH WIND       PRES   REMARKS
FAYETTEVILLE   CLOUDY    79  76  90 S3        29.90R
FORT SMITH     CLOUDY    85  76  74 S6        29.86R HX  94
HARRISON       MOCLDY    77  74  90 SE6       29.91R
BENTONVILLE    CLOUDY    81  73  78 S6        29.89S HX  85
ROGERS         MOCLDY    80  75  84 SE8       29.90R HX  85
SILOAM SPGS    CLOUDY    81  73  78 S6        29.89R HX  85
HIGHFILL       CLOUDY    80  76  87 S8        29.89R HX  86
SPRINGDALE     PTCLDY    81  77  89 SE5       29.90R HX  88
$$

ARZ004-005-016-160300-
NORTH CENTRAL ARKANSAS

CITY           SKY/WX    TMP DP  RH WIND       PRES   REMARKS
BATESVILLE     PTCLDY    81  75  83 SE6       29.92R HX  86
FLIPPIN        MOCLDY    79  72  78 CALM      29.87R
MTN HOME       CLOUDY    77  75  93 S7        29.90R
$$

ARZ040-041-160300-
WEST CENTRAL ARKANSAS

CITY           SKY/WX    TMP DP  RH WIND       PRES   REMARKS
MENA           CLOUDY    81  79  94 CALM      29.91R HX  89
MOUNT IDA      CLOUDY    80  75  84 CALM      29.89R HX  85
$$

ARZ009-017-025-026-028-160300-
NORTHEAST ARKANSAS

CITY           SKY/WX    TMP DP  RH WIND       PRES   REMARKS
JONESBORO      CLOUDY    78  76  93 E3        29.92R
NEWPORT        CLEAR     77  75  93 E3        29.92R
WALNUT RIDGE   CLOUDY    79  73  83 SE7       29.92R
BLYTHEVILLE    PTCLDY    78  74  87 CALM      29.95R
$$

ARZ022-023-033-042-044-160300-
CENTRAL ARKANSAS

CITY           SKY/WX    TMP DP  RH WIND       PRES   REMARKS
LITTLE ROCK    CLOUDY    80  76  87 S3        29.91R HX  86
N LITTLE ROCK    N/A     82  74  77 CALM      29.92R HX  88
JACKSONVILLE   CLOUDY    81  78  92 CALM      29.90R HX  89
CONWAY           N/A     79  77  94 SE3       29.88R
SEARCY           N/A    N/A N/A N/A MISG        N/A
HOT SPRINGS    CLOUDY    84  76  76 E3        29.91R HX  93
RUSSELLVILLE   CLOUDY    81  75  82 SE3       29.88R HX  87
CLINTON        MOCLDY    81  72  74 CALM      29.91R
$$

ARZ036-160300-
EAST ARKANSAS

CITY           SKY/WX    TMP DP  RH WIND       PRES   REMARKS
WEST MEMPHIS   CLEAR     80  77  90 S5        29.91R HX  87
$$

ARZ050-053-066-070-073-160300-
SOUTHWEST ARKANSAS

CITY           SKY/WX    TMP DP  RH WIND       PRES   REMARKS
ARKADELPHIA    FAIR      81  79  94 CALM      29.90R HX  90
CAMDEN         CLOUDY    82  77  83 CALM      29.89R HX  91
TEXARKANA      CLOUDY    80  76  87 SE6       29.89R HX  86
EL DORADO      PTCLDY    83  76  79 SE9       29.91R HX  91
DE QUEEN       CLOUDY    82  80  94 E3        29.86R HX  94
$$

ARZ056-057-069-160300-
SOUTHEAST ARKANSAS

CITY           SKY/WX    TMP DP  RH WIND       PRES   REMARKS
PINE BLUFF     CLOUDY    81  76  84 SE5       29.91R HX  87
MONTICELLO     PTCLDY    83  76  79 S7        29.93R HX  91

$$






USA.gov is the U.S. government's official web portal to all federal, state and local government web resources and services.